FW0958 Weather Reports


Display with metric or nautical units.
time (UTC)temp
F
wind
direction
speed
MPH
gust
MPH
rain 1hr
in
rain 24hr
in
rain mn
in
humidity
%
barometer
mb
20260502170132 63 230 0.0 0.0 0.00 0.00 0.00 85 1014.4
20260502164250 62 176 0.0 0.0 0.00 0.00 0.00 87 1014.4
20260502164137 62 176 0.0 0.0 0.00 0.00 0.00 87 1014.5
20260502164131 62 175 0.0 0.0 0.00 0.00 0.00 87 1014.5
20260502162631 62 167 0.0 0.0 0.00 0.00 0.00 87 1014.4
20260502162130 62 167 0.0 0.0 0.00 0.00 0.00 88 1014.6
20260502161629 62 167 0.0 0.0 0.00 0.00 0.00 88 1014.5
20260502161133 61 167 0.0 3.0 0.00 0.00 0.00 88 1014.4
20260502161129 62 167 0.0 2.0 0.00 0.00 0.00 88 1014.6
20260502160124 61 167 0.0 3.0 0.00 0.00 0.00 89 1014.6
20260502151626 60 169 0.0 1.0 0.00 0.00 0.00 90 1014.4
20260502151125 60 169 0.0 2.0 0.00 0.00 0.00 89 1014.4
20260502150625 60 169 0.0 2.0 0.00 0.00 0.00 90 1014.5
20260502150124 60 169 0.0 2.0 0.00 0.00 0.00 90 1014.4
20260502140119 60 139 0.0 3.0 0.00 0.00 0.00 89 1014.0
20260502130619 60 351 0.0 4.0 0.00 0.00 0.00 89 1013.7
20260502130123 60 340 0.0 3.0 0.00 0.00 0.00 89 1013.7
20260502130119 60 340 0.0 1.0 0.00 0.00 0.00 89 1013.6
20260502123623 60 347 0.0 0.0 0.00 0.00 0.00 89 1013.3
20260502123616 60 347 0.0 2.0 0.00 0.00 0.00 89 1013.7
20260502123116 60 346 0.0 2.0 0.00 0.00 0.00 89 1013.5
20260502122116 60 347 0.0 0.0 0.00 0.00 0.00 89 1013.4
20260502121621 61 347 0.0 0.0 0.00 0.00 0.00 89 1013.3
20260502121616 61 347 0.0 0.0 0.00 0.00 0.00 89 1013.3
20260502120616 61 347 0.0 0.0 0.00 0.00 0.00 89 1013.2
20260502120120 60 347 0.0 2.0 0.00 0.00 0.00 89 1013.1
20260502120116 60 347 0.0 2.0 0.00 0.00 0.00 89 1013.2
20260502115120 60 343 0.0 3.0 0.00 0.00 0.00 89 1013.2
20260502115115 60 343 0.0 2.0 0.00 0.00 0.00 89 1013.2
20260502114119 60 332 0.0 0.0 0.00 0.00 0.00 89 1013.2
20260502114113 60 340 0.0 3.0 0.00 0.00 0.00 89 1013.2
20260502113118 60 331 0.0 0.0 0.00 0.00 0.00 89 1013.2
20260502113113 60 331 0.0 0.0 0.00 0.00 0.00 89 1013.3
20260502112114 60 331 0.0 0.0 0.00 0.00 0.00 89 1013.2
20260502111614 60 331 0.0 1.0 0.00 0.00 0.00 89 1013.2
20260502111111 60 331 0.0 1.0 0.00 0.00 0.00 89 1013.2
20260502110612 60 343 0.0 0.0 0.00 0.00 0.00 89 1013.2
20260502110111 60 343 0.0 0.0 0.00 0.00 0.00 89 1013.1
20260502105612 60 343 0.0 2.0 0.00 0.00 0.00 88 1013.0
20260502105112 60 343 0.0 2.0 0.00 0.00 0.00 88 1013.0
20260502104612 60 343 0.0 3.0 0.00 0.00 0.00 88 1013.0
20260502104112 60 340 0.0 3.0 0.00 0.00 0.00 88 1013.1
20260502103611 60 341 0.0 2.0 0.00 0.00 0.00 88 1013.1
20260502103111 60 341 1.0 3.0 0.00 0.00 0.00 88 1013.0
20260502102610 60 3 1.0 5.0 0.00 0.00 0.00 88 1013.0
20260502102109 60 5 1.0 5.0 0.00 0.00 0.00 88 1012.9
20260502101615 61 149 0.0 0.0 0.00 0.00 0.00 88 1013.0
20260502101609 60 139 0.0 3.0 0.00 0.00 0.00 88 1012.9
20260502100610 61 147 0.0 0.0 0.00 0.00 0.00 88 1012.8
20260502100110 60 147 0.0 0.0 0.00 0.00 0.00 88 1012.8
20260502091108 61 148 0.0 1.0 0.00 0.00 0.00 87 1012.9
20260502090611 61 148 0.0 2.0 0.00 0.00 0.00 87 1012.8
20260502090607 61 148 0.0 2.0 0.00 0.00 0.00 87 1012.8
20260502080107 61 1 0.0 2.0 0.00 0.00 0.00 87 1013.5
20260502071107 61 2 0.0 0.0 0.00 0.00 0.00 87 1013.8
20260502070604 61 2 0.0 0.0 0.00 0.00 0.00 87 1013.7
20260502070110 61 2 0.0 2.0 0.00 0.00 0.00 88 1013.7
20260502070104 61 2 0.0 0.0 0.00 0.00 0.00 88 1013.7
20260502065722 61 2 0.0 2.0 0.00 0.00 0.00 88 1013.6
20260502065223 61 2 0.0 2.0 0.00 0.00 0.00 88 1013.7
20260502064103 61 2 0.0 0.0 0.00 0.00 0.00 88 1013.7
20260502063604 60 2 0.0 0.0 0.00 0.00 0.00 88 1013.6
20260502063109 60 2 0.0 0.0 0.00 0.00 0.00 88 1013.5
20260502063103 60 2 0.0 0.0 0.00 0.00 0.00 88 1013.5
20260502062105 60 2 0.0 0.0 0.00 0.00 0.00 88 1013.6
20260502061605 60 2 0.0 0.0 0.00 0.00 0.00 88 1013.6
20260502061103 60 2 0.0 0.0 0.00 0.00 0.00 88 1013.6
20260502060602 60 2 0.0 0.0 0.00 0.00 0.00 88 1013.6
20260502060104 60 2 0.0 0.0 0.00 0.00 0.00 88 1013.7
20260502055603 60 2 0.0 0.0 0.00 0.00 0.00 88 1013.7
20260502055102 60 2 0.0 1.0 0.00 0.00 0.00 88 1013.6
20260502054603 60 2 0.0 1.0 0.00 0.00 0.00 88 1013.6
20260502054102 60 2 0.0 0.0 0.00 0.00 0.00 87 1013.7
20260502053608 60 3 0.0 0.0 0.00 0.00 0.00 87 1013.7
20260502053603 60 2 0.0 0.0 0.00 0.00 0.00 87 1013.6
20260502053102 60 3 0.0 0.0 0.00 0.00 0.00 87 1013.7
20260502052102 60 3 0.0 1.0 0.00 0.00 0.00 87 1013.6
20260502051603 60 2 0.0 1.0 0.00 0.00 0.00 87 1013.7
20260502051103 60 2 0.0 0.0 0.00 0.00 0.00 87 1013.6
20260502050601 60 3 0.0 0.0 0.00 0.00 0.00 87 1013.7
20260502050108 60 2 0.0 1.0 0.00 0.00 0.00 86 1013.6
20260502045603 60 3 0.0 1.0 0.00 0.00 0.00 86 1013.6
20260502044603 60 2 0.0 0.0 0.00 0.00 0.00 86 1013.7
20260502044107 61 2 0.0 3.0 0.00 0.00 0.00 86 1013.6
20260502044103 60 2 0.0 2.0 0.00 0.00 0.00 86 1013.7
20260502043721 61 2 1.0 3.0 0.00 0.00 0.00 86 1013.5
20260502042607 61 2 1.0 4.0 0.00 0.00 0.00 86 1013.4
20260502042603 61 2 1.0 3.0 0.00 0.00 0.00 86 1013.5
20260502041603 61 1 1.0 4.0 0.00 0.00 0.00 86 1013.4
20260502041101 61 1 1.0 3.0 0.00 0.00 0.00 85 1013.3
20260502040602 61 1 1.0 3.0 0.00 0.00 0.00 85 1013.3
20260502040107 61 1 0.0 2.0 0.00 0.00 0.00 85 1013.1
20260502035059 61 1 0.0 2.0 0.00 0.00 0.00 85 1013.1
20260502034601 61 0 0.0 3.0 0.00 0.00 0.00 84 1013.0
20260502034100 62 1 0.0 3.0 0.00 0.00 0.00 84 1012.9
20260502033559 62 0 0.0 2.0 0.00 0.00 0.00 84 1012.9
20260502033105 62 359 1.0 3.0 0.00 0.00 0.00 84 1013.0
20260502033100 62 0 1.0 3.0 0.00 0.00 0.00 84 1013.0
20260502032720 62 352 1.0 4.0 0.00 0.00 0.00 83 1012.8
20260502032059 62 355 1.0 4.0 0.00 0.00 0.00 83 1012.9
20260502031058 62 344 0.0 3.0 0.00 0.00 0.00 83 1012.8
20260502030559 62 342 0.0 3.0 0.00 0.00 0.00 83 1012.9
20260502030107 63 331 1.0 4.0 0.00 0.00 0.00 82 1012.8
20260502030058 62 338 0.0 3.0 0.00 0.00 0.00 83 1012.9
20260502025559 62 341 1.0 3.0 0.00 0.00 0.00 82 1012.9
20260502025059 63 342 1.0 4.0 0.00 0.00 0.00 82 1012.9
20260502024558 63 29 2.0 4.0 0.00 0.00 0.00 82 1012.8
20260502024219 63 6 2.0 7.0 0.00 0.00 0.00 81 1012.6
20260502023559 63 348 1.0 4.0 0.00 0.00 0.00 81 1012.7
20260502023216 64 335 2.0 9.0 0.00 0.00 0.00 80 1012.6
20260502022055 64 13 2.0 9.0 0.00 0.00 0.00 80 1012.6
20260502021555 64 331 3.0 8.0 0.00 0.00 0.00 79 1012.6
20260502021055 64 29 3.0 9.0 0.00 0.00 0.00 79 1012.6
20260502020601 65 9 4.0 11.0 0.00 0.00 0.00 77 1012.3
20260502020556 65 338 3.0 9.0 0.00 0.00 0.00 78 1012.4
20260502015557 66 1 4.0 11.0 0.00 0.00 0.00 76 1012.1
20260502015055 66 334 3.0 8.0 0.00 0.00 0.00 76 1012.1
20260502014555 67 321 3.0 9.0 0.00 0.00 0.00 75 1011.9
20260502014055 67 338 4.0 9.0 0.00 0.00 0.00 74 1012.0
20260502013555 68 347 4.0 9.0 0.00 0.00 0.00 73 1012.0
20260502013053 68 326 4.0 8.0 0.00 0.00 0.00 72 1011.8
20260502012553 69 294 3.0 8.0 0.00 0.00 0.00 71 1011.8
20260502012054 69 349 4.0 9.0 0.00 0.00 0.00 71 1011.6
20260502011553 69 357 4.0 9.0 0.00 0.00 0.00 71 1011.7
20260502011053 70 351 4.0 10.0 0.00 0.00 0.00 70 1011.7
20260502010553 70 12 5.0 12.0 0.00 0.00 0.00 69 1011.6
20260502010054 71 345 4.0 12.0 0.00 0.00 0.00 68 1011.6
20260502005552 71 314 3.0 9.0 0.00 0.00 0.00 68 1011.5
20260502005054 72 356 4.0 9.0 0.00 0.00 0.00 67 1011.4
20260502005050 72 311 4.0 9.0 0.00 0.00 0.00 68 1011.5
20260502004054 73 349 4.0 8.0 0.00 0.00 0.00 66 1011.5
20260502004050 72 337 4.0 9.0 0.00 0.00 0.00 66 1011.5
20260502003047 73 303 4.0 10.0 0.00 0.00 0.00 66 1011.4
20260502002547 73 320 4.0 10.0 0.00 0.00 0.00 65 1011.6
20260502002048 73 350 4.0 8.0 0.00 0.00 0.00 65 1011.5
20260502001548 74 353 4.0 9.0 0.00 0.00 0.00 65 1011.5
20260502001052 74 321 4.0 9.0 0.00 0.00 0.00 63 1011.4
20260502001047 74 334 4.0 9.0 0.00 0.00 0.00 64 1011.5
20260502000546 75 343 4.0 8.0 0.00 0.00 0.00 63 1011.3
20260501235545 75 22 4.0 9.0 0.00 0.00 0.00 62 1011.4
20260501235050 75 321 3.0 9.0 0.00 0.00 0.00 63 1011.3
20260501235045 75 14 3.0 9.0 0.00 0.00 0.00 63 1011.3
20260501234045 76 29 3.0 9.0 0.00 0.00 0.00 62 1011.2
20260501233552 76 317 3.0 9.0 0.00 0.00 0.00 62 1011.3
20260501233546 76 311 4.0 9.0 0.00 0.00 0.00 62 1011.3
20260501232544 76 305 4.0 9.0 0.00 0.00 0.00 62 1011.2
20260501232045 76 34 4.0 10.0 0.00 0.00 0.00 61 1011.2
20260501231546 76 303 4.0 11.0 0.00 0.00 0.00 61 1011.3
20260501231042 76 315 4.0 11.0 0.00 0.00 0.00 61 1011.4
20260501230544 77 322 4.0 10.0 0.00 0.00 0.00 60 1011.5
20260501230048 76 8 4.0 9.0 0.00 0.00 0.00 61 1011.6
20260501230043 76 334 4.0 10.0 0.00 0.00 0.00 62 1011.4
20260501225043 76 39 4.0 10.0 0.00 0.00 0.00 60 1011.6
20260501224544 76 23 4.0 10.0 0.00 0.00 0.00 61 1011.5
20260501224044 76 336 4.0 9.0 0.00 0.00 0.00 60 1011.6
20260501223544 77 327 4.0 9.0 0.00 0.00 0.00 60 1011.6
20260501223045 77 331 4.0 9.0 0.00 0.00 0.00 60 1011.7
20260501222544 77 54 4.0 10.0 0.00 0.00 0.00 60 1011.8
20260501222043 76 348 4.0 10.0 0.00 0.00 0.00 61 1011.7
20260501221542 76 334 4.0 10.0 0.00 0.00 0.00 60 1011.9
20260501221044 76 289 3.0 10.0 0.00 0.00 0.00 61 1011.8
20260501220550 76 320 5.0 11.0 0.00 0.00 0.00 61 1012.0
20260501220545 76 330 4.0 10.0 0.00 0.00 0.00 61 1011.9
20260501220042 76 343 5.0 11.0 0.00 0.00 0.00 61 1012.0
20260501215702 77 286 5.0 12.0 0.00 0.00 0.00 61 1011.9
20260501214543 76 307 5.0 12.0 0.00 0.00 0.00 60 1012.1
20260501214042 76 20 5.0 11.0 0.00 0.00 0.00 61 1012.0
20260501213542 77 329 5.0 13.0 0.00 0.00 0.00 61 1012.1
20260501213049 78 303 5.0 11.0 0.00 0.00 0.00 59 1012.1
20260501213045 78 344 5.0 13.0 0.00 0.00 0.00 58 1012.1
20260501212042 79 345 4.0 11.0 0.00 0.00 0.00 57 1012.3
20260501211544 79 5 4.0 11.0 0.00 0.00 0.00 57 1012.1
20260501211042 79 338 5.0 11.0 0.00 0.00 0.00 56 1012.3
20260501210544 78 329 5.0 11.0 0.00 0.00 0.00 57 1012.2
20260501210042 79 320 5.0 11.0 0.00 0.00 0.00 57 1012.3
20260501205544 79 348 5.0 12.0 0.00 0.00 0.00 56 1012.1
20260501205041 79 337 4.0 12.0 0.00 0.00 0.00 57 1012.0
20260501204540 79 324 4.0 9.0 0.00 0.00 0.00 55 1012.1
20260501204040 79 234 4.0 10.0 0.00 0.00 0.00 56 1012.1
20260501203542 79 335 5.0 11.0 0.00 0.00 0.00 56 1012.1
20260501203042 80 313 5.0 11.0 0.00 0.00 0.00 56 1012.3
20260501202541 80 349 4.0 11.0 0.00 0.00 0.00 55 1012.3
20260501202045 79 211 3.0 10.0 0.00 0.00 0.00 55 1012.3
20260501202041 79 245 3.0 10.0 0.00 0.00 0.00 55 1012.2
20260501201042 79 308 2.0 6.0 0.00 0.00 0.00 57 1012.5
20260501200538 78 240 2.0 7.0 0.00 0.00 0.00 58 1012.6
20260501200038 78 232 2.0 7.0 0.00 0.00 0.00 59 1012.7
20260501195544 76 182 3.0 7.0 0.00 0.00 0.00 60 1012.7
20260501195539 76 182 2.0 6.0 0.00 0.00 0.00 60 1012.7
20260501194540 77 239 2.0 7.0 0.00 0.00 0.00 60 1012.8
20260501194038 75 184 2.0 5.0 0.00 0.00 0.00 62 1012.7
20260501193538 75 122 2.0 5.0 0.00 0.00 0.00 61 1012.9
20260501193038 76 162 2.0 5.0 0.00 0.00 0.00 62 1012.9
20260501192538 73 273 2.0 5.0 0.00 0.00 0.00 63 1013.0
20260501192039 72 209 2.0 3.0 0.00 0.00 0.00 64 1013.0
20260501191543 73 217 2.0 5.0 0.00 0.00 0.00 66 1013.3
20260501191536 73 215 3.0 7.0 0.00 0.00 0.00 64 1013.2
20260501191038 74 219 2.0 7.0 0.00 0.00 0.00 62 1013.1
20260501190657 73 165 2.0 5.0 0.00 0.00 0.00 65 1013.4
20260501185537 72 162 2.0 5.0 0.00 0.00 0.00 67 1013.6
20260501185037 71 165 3.0 7.0 0.00 0.00 0.00 67 1013.5
20260501184537 71 166 2.0 7.0 0.00 0.00 0.00 66 1013.7
20260501184037 71 252 2.0 5.0 0.00 0.00 0.00 67 1013.7
20260501183536 70 286 2.0 5.0 0.00 0.00 0.00 70 1013.8
20260501183037 71 210 2.0 5.0 0.00 0.00 0.00 68 1013.9
20260501182534 70 196 3.0 8.0 0.00 0.00 0.00 69 1013.9
20260501182040 69 133 2.0 6.0 0.00 0.00 0.00 70 1014.1
20260501182034 69 179 3.0 8.0 0.00 0.00 0.00 69 1014.0
20260501181655 69 129 2.0 5.0 0.00 0.00 0.00 71 1014.1
20260501180536 68 222 2.0 6.0 0.00 0.00 0.00 72 1014.2
20260501180034 67 149 2.0 6.0 0.00 0.00 0.00 73 1014.2
20260501175535 67 118 2.0 6.0 0.00 0.00 0.00 74 1014.4
20260501175040 66 132 3.0 8.0 0.00 0.00 0.00 73 1014.4
20260501175034 67 112 3.0 8.0 0.00 0.00 0.00 73 1014.4
20260501174035 66 112 2.0 6.0 0.00 0.00 0.00 75 1014.5
20260501173532 65 166 1.0 4.0 0.00 0.00 0.00 76 1014.5
20260501173032 64 167 2.0 4.0 0.00 0.00 0.00 77 1014.4
20260501172533 64 153 2.0 4.0 0.00 0.00 0.00 77 1014.5
20260501172032 64 39 2.0 4.0 0.00 0.00 0.00 78 1014.5
20260501171533 63 119 2.0 4.0 0.00 0.00 0.00 78 1014.7